Location: Heppenheim
(49.6410°N, 8.6370°E)
Time: 17:35:32
(UTC+02:00)

ISS - Pass Details

Date: 11 May 2026
Orbit: 414 x 424 km, 51.6° (Epoch: 10 May)

Event Time Altitude Azimuth Distance (km) Brightness Sun altitude
Rises 21:41:12 0° 232° (SW) 2,342 0.2 -6.6°
Reaches altitude 10° 21:43:19 10° 227° (SW) 1,483 -0.9 -6.9°
Maximum altitude 21:46:32 47° 152° (SSE) 557 -3.5 -7.3°
Drops below altitude 10° 21:49:46 10° 77° (ENE) 1,492 -1.3 -7.7°
Sets 21:51:54 0° 72° (ENE) 2,358 -0.3 -8.0°
